Location: Aufkirchen
(47.9603°N, 11.3653°E)
Time: 07:44:08
(UTC+01:00)

Transit 4A - Pass Details

Date: 03 December 2020
Orbit: 864 x 980 km, 66.8° (Epoch: 25 January)

Event Time Altitude Azimuth Distance (km) Brightness Sun altitude
Rises 14:54:34 0° 326° (NW) 3,687 10.9 10.2°
Reaches altitude 10° 14:57:15 10° 331° (NNW) 2,730 10.2 9.9°
Maximum altitude 15:03:28 51° 47° (NE) 1,193 8.3 9.2°
Drops below altitude 10° 15:09:31 10° 123° (ESE) 2,657 10.2 8.5°
Sets 15:12:06 0° 129° (SE) 3,581 10.9 8.2°
